Location: *
(47.6569°N, 7.4256°E)
Time: 14:23:56
(UTC+00:00)

CORIOLIS - Pass Details

Date: 14 December 2019
Orbit: 818 x 839 km, 98.7° (Epoch: 16 January)

Event Time Altitude Azimuth Distance (km) Brightness Sun altitude
Rises 16:24:19 0° 148° (SSE) 3,381 7.3 -7.4°
Reaches altitude 10° 16:26:43 10° 143° (SE) 2,451 6.5 -7.8°
Maximum altitude 16:31:58 52° 69° (ENE) 1,038 4.3 -8.6°
Drops below altitude 10° 16:37:15 10° 354° (N) 2,462 6.4 -9.4°
Sets 16:39:40 0° 350° (N) 3,399 7.2 -9.8°
